| time (UTC) | temp F | wind direction | speed knots | gust knots | rain 1hr in | rain 24hr in | rain mn in | humidity % | barometer mb |
| 20260507134511 | 51 | 194 | 1.7 | 9.6 | 0.00 | 0.07 | 0.01 | 54 | 1015.7 |
| 20260507133008 | 51 | 264 | 1.7 | 5.2 | 0.00 | 0.07 | 0.01 | 58 | 1015.7 |
| 20260507131507 | 50 | 336 | 0.9 | 7.8 | 0.00 | 0.07 | 0.01 | 64 | 1015.7 |
| 20260507130000 | 49 | 71 | 0.0 | 3.5 | 0.00 | 0.07 | 0.01 | 71 | 1015.6 |
| 20260507124600 | 47 | 337 | 0.9 | 4.3 | 0.00 | 0.09 | 0.01 | 77 | 1015.7 |
| 20260507123055 | 44 | 301 | 0.0 | 3.5 | 0.00 | 0.09 | 0.01 | 88 | 1015.7 |
| 20260507121556 | 42 | 335 | 0.0 | 4.3 | 0.00 | 0.09 | 0.01 | 87 | 1015.9 |
| 20260507120051 | 41 | 28 | 1.7 | 7.8 | 0.00 | 0.09 | 0.01 | 87 | 1015.8 |
| 20260507114550 | 39 | 19 | 0.0 | 1.7 | 0.00 | 0.11 | 0.01 | 88 | 1015.7 |
| 20260507113050 | 38 | 25 | 0.0 | 0.9 | 0.00 | 0.11 | 0.01 | 88 | 1015.8 |
| 20260507111547 | 37 | 11 | 0.0 | 0.0 | 0.00 | 0.11 | 0.01 | 88 | 1015.6 |
| 20260507110056 | 37 | 11 | 0.0 | 0.0 | 0.00 | 0.11 | 0.01 | 88 | 1015.3 |
| 20260507104549 | 37 | 11 | 0.0 | 0.0 | 0.00 | 0.14 | 0.01 | 88 | 1015.3 |
| 20260507103106 | 37 | 11 | 0.0 | 0.0 | 0.00 | 0.14 | 0.01 | 88 | 1015.1 |
| 20260507101540 | 38 | 11 | 0.0 | 0.9 | 0.00 | 0.14 | 0.01 | 88 | 1015.0 |
| 20260507100044 | 38 | 11 | 0.0 | 0.9 | 0.00 | 0.14 | 0.01 | 88 | 1015.0 |
| 20260507094538 | 38 | 11 | 0.0 | 0.0 | 0.00 | 0.17 | 0.01 | 88 | 1015.1 |
| 20260507093037 | 38 | 11 | 0.0 | 0.0 | 0.00 | 0.17 | 0.01 | 88 | 1015.0 |
| 20260507091539 | 39 | 11 | 0.0 | 0.0 | 0.01 | 0.17 | 0.01 | 88 | 1014.8 |
| 20260507090035 | 39 | 11 | 0.0 | 0.0 | 0.01 | 0.17 | 0.01 | 88 | 1014.8 |
| 20260507084542 | 39 | 11 | 0.0 | 0.0 | 0.01 | 0.20 | 0.01 | 88 | 1014.7 |
| 20260507083032 | 39 | 11 | 0.0 | 0.9 | 0.01 | 0.20 | 0.01 | 88 | 1014.7 |
| 20260507081529 | 39 | 11 | 0.0 | 0.0 | 0.00 | 0.19 | 0.00 | 88 | 1014.5 |
| 20260507080027 | 40 | 11 | 0.0 | 0.0 | 0.00 | 0.19 | 0.00 | 88 | 1014.5 |
| 20260507074524 | 40 | 11 | 0.0 | 0.0 | 0.00 | 0.23 | 0.00 | 88 | 1014.5 |
| 20260507073023 | 40 | 11 | 0.0 | 0.0 | 0.00 | 0.23 | 0.00 | 88 | 1014.6 |
| 20260507071525 | 41 | 11 | 0.0 | 0.0 | 0.00 | 0.23 | 0.00 | 88 | 1014.6 |
| 20260507070021 | 41 | 11 | 0.0 | 0.0 | 0.00 | 0.23 | 0.00 | 88 | 1014.5 |
| 20260507064519 | 41 | 11 | 0.0 | 0.0 | 0.00 | 0.27 | 0.00 | 88 | 1014.6 |
| 20260507063017 | 41 | 11 | 0.0 | 0.0 | 0.00 | 0.27 | 0.00 | 88 | 1014.7 |
| 20260507061516 | 42 | 11 | 0.0 | 0.0 | 0.00 | 0.27 | 0.00 | 88 | 1014.6 |
| 20260507060019 | 42 | 11 | 0.0 | 0.0 | 0.00 | 0.27 | 0.00 | 88 | 1014.6 |
| 20260507054513 | 43 | 11 | 0.0 | 0.0 | 0.00 | 0.32 | 0.00 | 88 | 1014.6 |
| 20260507053014 | 43 | 11 | 0.0 | 0.0 | 0.00 | 0.32 | 0.00 | 88 | 1014.7 |
| 20260507051511 | 43 | 11 | 0.0 | 0.0 | 0.00 | 0.32 | 0.00 | 88 | 1014.6 |
| 20260507050031 | 43 | 11 | 0.0 | 0.0 | 0.00 | 0.32 | 0.00 | 88 | 1014.8 |
| 20260507044509 | 43 | 11 | 0.0 | 0.0 | 0.00 | 0.37 | 0.00 | 88 | 1014.9 |
| 20260507043007 | 44 | 11 | 0.0 | 0.9 | 0.00 | 0.37 | 0.00 | 87 | 1014.7 |
| 20260507041507 | 44 | 11 | 0.0 | 0.9 | 0.00 | 0.37 | 0.00 | 87 | 1014.8 |
| 20260507040003 | 44 | 11 | 0.0 | 0.0 | 0.00 | 0.37 | 0.00 | 87 | 1014.6 |
| 20260507034609 | 45 | 11 | 0.0 | 0.0 | 0.00 | 0.41 | 0.37 | 87 | 1014.6 |
| 20260507033100 | 45 | 11 | 0.0 | 0.0 | 0.00 | 0.41 | 0.37 | 86 | 1014.7 |
| 20260507031601 | 46 | 11 | 0.0 | 0.0 | 0.00 | 0.41 | 0.37 | 86 | 1014.7 |
| 20260507030104 | 46 | 11 | 0.0 | 0.0 | 0.00 | 0.41 | 0.37 | 85 | 1014.8 |
| 20260507024558 | 46 | 11 | 0.0 | 0.9 | 0.00 | 0.46 | 0.37 | 84 | 1014.7 |
| 20260507023057 | 48 | 11 | 0.0 | 0.9 | 0.00 | 0.46 | 0.37 | 84 | 1014.6 |
| 20260507021656 | 48 | 11 | 0.0 | 0.0 | 0.00 | 0.46 | 0.37 | 82 | 1014.6 |
| 20260507020110 | 49 | 11 | 0.0 | 0.9 | 0.00 | 0.46 | 0.37 | 80 | 1014.5 |
| 20260507014619 | 50 | 11 | 0.0 | 0.9 | 0.00 | 0.49 | 0.37 | 77 | 1014.4 |
| 20260507013053 | 50 | 11 | 0.0 | 0.9 | 0.00 | 0.49 | 0.37 | 75 | 1014.1 |
| 20260507011558 | 52 | 11 | 0.0 | 0.9 | 0.00 | 0.49 | 0.37 | 77 | 1013.7 |
| 20260507010050 | 53 | 11 | 0.0 | 0.0 | 0.00 | 0.49 | 0.37 | 74 | 1014.0 |
| 20260507004548 | 54 | 11 | 0.0 | 0.9 | 0.00 | 0.50 | 0.37 | 66 | 1013.9 |
| 20260507003047 | 55 | 11 | 0.0 | 2.6 | 0.00 | 0.50 | 0.37 | 61 | 1013.7 |
| 20260507001559 | 56 | 360 | 0.0 | 1.7 | 0.00 | 0.50 | 0.37 | 58 | 1013.7 |
| 20260507000057 | 57 | 104 | 0.9 | 2.6 | 0.00 | 0.50 | 0.37 | 58 | 1013.5 |
| 20260506234601 | 57 | 327 | 0.9 | 5.2 | 0.00 | 0.51 | 0.37 | 56 | 1013.2 |
| 20260506233048 | 58 | 302 | 0.9 | 4.3 | 0.00 | 0.51 | 0.37 | 54 | 1013.1 |
| 20260506231544 | 59 | 62 | 1.7 | 5.2 | 0.00 | 0.51 | 0.37 | 53 | 1012.8 |
| 20260506230045 | 58 | 333 | 0.0 | 5.2 | 0.00 | 0.51 | 0.37 | 57 | 1013.0 |
| 20260506224544 | 58 | 319 | 0.9 | 4.3 | 0.00 | 0.51 | 0.37 | 53 | 1013.1 |
| 20260506223042 | 58 | 324 | 0.0 | 2.6 | 0.00 | 0.51 | 0.37 | 55 | 1013.3 |
| 20260506221551 | 58 | 154 | 0.9 | 2.6 | 0.00 | 0.51 | 0.37 | 54 | 1013.3 |
| 20260506220045 | 58 | 290 | 0.0 | 4.3 | 0.00 | 0.51 | 0.37 | 58 | 1013.4 |
| 20260506214540 | 58 | 298 | 0.9 | 2.6 | 0.00 | 0.56 | 0.37 | 55 | 1013.4 |
| 20260506213044 | 58 | 271 | 1.7 | 4.3 | 0.00 | 0.56 | 0.37 | 55 | 1013.2 |
| 20260506211501 | 59 | 312 | 1.7 | 4.3 | 0.00 | 0.56 | 0.37 | 54 | 1012.9 |
| 20260506210002 | 59 | 360 | 1.7 | 7.0 | 0.00 | 0.56 | 0.37 | 52 | 1012.9 |
| 20260506204601 | 59 | 76 | 0.9 | 4.3 | 0.00 | 0.70 | 0.37 | 53 | 1012.8 |
| 20260506203059 | 59 | 286 | 0.9 | 7.0 | 0.00 | 0.70 | 0.37 | 53 | 1012.9 |
| 20260506201558 | 59 | 324 | 1.7 | 6.1 | 0.00 | 0.70 | 0.37 | 54 | 1012.9 |
| 20260506200058 | 59 | 88 | 0.9 | 4.3 | 0.00 | 0.70 | 0.37 | 56 | 1013.0 |
| 20260506194557 | 59 | 40 | 0.9 | 7.0 | 0.00 | 0.74 | 0.37 | 51 | 1012.8 |
| 20260506193058 | 60 | 220 | 1.7 | 5.2 | 0.00 | 0.74 | 0.37 | 51 | 1012.7 |
| 20260506191605 | 60 | 336 | 2.6 | 8.7 | 0.00 | 0.74 | 0.37 | 52 | 1012.5 |
| 20260506190056 | 61 | 148 | 0.9 | 7.0 | 0.00 | 0.74 | 0.37 | 53 | 1012.4 |
| 20260506184559 | 61 | 327 | 1.7 | 6.1 | 0.00 | 0.74 | 0.37 | 53 | 1012.5 |
| 20260506183102 | 60 | 344 | 2.6 | 7.8 | 0.00 | 0.74 | 0.37 | 52 | 1012.4 |
| 20260506181603 | 61 | 355 | 1.7 | 4.3 | 0.00 | 0.74 | 0.37 | 53 | 1012.5 |
| 20260506180051 | 60 | 278 | 1.7 | 10.4 | 0.00 | 0.74 | 0.37 | 54 | 1012.6 |
| 20260506174549 | 60 | 234 | 1.7 | 6.1 | 0.00 | 0.74 | 0.37 | 52 | 1012.7 |
| 20260506173112 | 59 | 275 | 1.7 | 9.6 | 0.00 | 0.74 | 0.37 | 60 | 1012.9 |
| 20260506171546 | 58 | 251 | 1.7 | 7.0 | 0.00 | 0.74 | 0.37 | 58 | 1013.0 |
| 20260506164544 | 58 | 351 | 1.7 | 7.0 | 0.01 | 0.74 | 0.37 | 59 | 1013.1 |
| 20260506163052 | 57 | 233 | 1.7 | 7.0 | 0.01 | 0.74 | 0.37 | 61 | 1013.0 |
| 20260506161541 | 57 | 242 | 0.9 | 4.3 | 0.01 | 0.73 | 0.36 | 68 | 1012.9 |
| 20260506160043 | 55 | 130 | 0.9 | 8.7 | 0.01 | 0.73 | 0.36 | 65 | 1012.8 |
| 20260506154551 | 54 | 315 | 0.9 | 7.8 | 0.02 | 0.73 | 0.36 | 69 | 1012.6 |
| 20260506153037 | 54 | 240 | 0.9 | 3.5 | 0.02 | 0.73 | 0.36 | 72 | 1013.1 |
| 20260506151534 | 53 | 238 | 0.9 | 4.3 | 0.01 | 0.72 | 0.35 | 75 | 1012.8 |
| 20260506150032 | 52 | 232 | 0.9 | 3.5 | 0.02 | 0.72 | 0.35 | 79 | 1012.5 |
| 20260506144529 | 51 | 341 | 1.7 | 7.8 | 0.01 | 0.71 | 0.34 | 79 | 1012.1 |
| 20260506143028 | 50 | 185 | 0.9 | 7.8 | 0.02 | 0.71 | 0.34 | 83 | 1011.8 |
| 20260506141526 | 50 | 316 | 2.6 | 10.4 | 0.02 | 0.71 | 0.34 | 84 | 1011.9 |
| 20260506140027 | 49 | 306 | 0.9 | 5.2 | 0.02 | 0.70 | 0.33 | 85 | 1011.9 |